This is the latest recevied weather packets stored in our database for station/object K2YYD-2. If no packets are shown the sender has not sent any weather packets the latest 1 day(s).
| Time | Temp. | Humidity | Pressure | Rain* | Wind** | Luminosity | Snow |
|---|---|---|---|---|---|---|---|
| 1778023061 | 18.33° C | 66% | 1006 hPa | 0 mm | 1.34 m/s, 279° | 25 W/m² | - |
| 1778022941 | 18.33° C | 66% | 1006 hPa | 0 mm | 1.79 m/s, 147° | 28 W/m² | - |
| 1778022821 | 18.33° C | 66% | 1005.9 hPa | 0 mm | 1.79 m/s, 215° | 29 W/m² | - |
| 1778022701 | 18.33° C | 66% | 1005.9 hPa | 0 mm | 1.79 m/s, 176° | 31 W/m² | - |
| 1778022581 | 18.33° C | 66% | 1005.9 hPa | 0 mm | 2.24 m/s, 171° | 33 W/m² | - |
| 1778022461 | 18.33° C | 66% | 1005.9 hPa | 0 mm | 2.24 m/s, 198° | 35 W/m² | - |
| 1778022341 | 18.33° C | 66% | 1005.9 hPa | 0 mm | 2.24 m/s, 172° | 38 W/m² | - |
| 1778022221 | 18.33° C | 66% | 1005.8 hPa | 0 mm | 1.79 m/s, 205° | 40 W/m² | - |
| 1778022101 | 18.33° C | 66% | 1005.8 hPa | 0 mm | 1.79 m/s, 168° | 43 W/m² | - |
| 1778021981 | 18.33° C | 65% | 1005.8 hPa | 0 mm | 1.79 m/s, 175° | 45 W/m² | - |
| 1778021861 | 18.89° C | 65% | 1005.7 hPa | 0 mm | 1.79 m/s, 180° | 45 W/m² | - |
| 1778021741 | 18.89° C | 65% | 1005.7 hPa | 0 mm | 1.34 m/s, 217° | 48 W/m² | - |
| 1778021621 | 18.89° C | 64% | 1005.8 hPa | 0 mm | 1.79 m/s, 212° | 52 W/m² | - |
| 1778021502 | 18.89° C | 64% | 1005.8 hPa | 0 mm | 1.79 m/s, 172° | 54 W/m² | - |
| 1778021382 | 18.89° C | 64% | 1005.8 hPa | 0 mm | 1.79 m/s, 169° | 61 W/m² | - |
| 1778021261 | 18.89° C | 64% | 1005.8 hPa | 0 mm | 1.79 m/s, 243° | 68 W/m² | - |
| 1778021141 | 18.89° C | 64% | 1005.8 hPa | 0 mm | 1.79 m/s, 189° | 67 W/m² | - |
| 1778021022 | 18.89° C | 64% | 1005.9 hPa | 0 mm | 2.24 m/s, 209° | 69 W/m² | - |
| 1778020902 | 18.89° C | 64% | 1005.9 hPa | 0 mm | 2.68 m/s, 180° | 72 W/m² | - |
| 1778020781 | 19.44° C | 63% | 1005.9 hPa | 0 mm | 2.68 m/s, 179° | 77 W/m² | - |
| 1778020662 | 19.44° C | 63% | 1005.8 hPa | 0 mm | 2.68 m/s, 179° | 105 W/m² | - |
| 1778020542 | 19.44° C | 62% | 1005.7 hPa | 0 mm | 2.68 m/s, 182° | 133 W/m² | - |
| 1778020422 | 19.44° C | 61% | 1005.7 hPa | 0 mm | 2.68 m/s, 172° | 148 W/m² | - |
| 1778020302 | 19.44° C | 61% | 1005.6 hPa | 0 mm | 2.68 m/s, 185° | 165 W/m² | - |
| 1778020182 | 19.44° C | 61% | 1005.7 hPa | 0 mm | 2.68 m/s, 158° | 155 W/m² | - |
* Rain latest hour (hover to see other rain measurements)
** Current wind speed in m/s (hover to see current wind gust speed)